Location: Newark
(49.8348°N, 24.0280°E)
Time: 05:15:22
(UTC+00:00)

Transit 2A - Pass Details

Date: 26 January 2020
Orbit: 599 x 959 km, 66.7° (Epoch: 25 February)

Event Time Altitude Azimuth Distance (km) Brightness Sun altitude
Rises 04:16:47 0° 308° (NW) 3,013 - -17.4°
Reaches altitude 10° 04:19:59 10° 284° (WNW) 2,161 - -16.9°
Maximum altitude 04:22:36 15° 252° (WSW) 1,922 - -16.5°
Exits shadow 04:24:17 13° 231° (SW) 2,077 7.9 -16.2°
Drops below altitude 10° 04:25:20 10° 220° (SW) 2,274 8.2 -16.0°
Sets 04:28:52 0° 197° (SSW) 3,280 9.2 -15.5°
